METEOR 2-17 DEB, 38281

Orbit data source: Space-Track

METEOR 2-17 DEB, 38281 is space debris in LEO originally from a launch on Sat, 30 Jan 1988 UTC launched from the Plesetsk Missile And Space Complex (PKMTR). Debris objects in space refer to the collection of defunct objects orbiting the Earth. Examples of debris include non-operational satellites, rocket bodies, and fragments generated from explosions, collisions, or faulty payload assembly.

Loading next visibility...
Identifier
38281, 1988-005AJ
Orbit
LEO
Country
Flag of CISCIS
Related business
Manufacturer
Unknown
Mission
Spacecraft
Bus & Motor
Unknown
Mass
Unknown
Launch date (UTC)
1988-01-30 (38 years ago)
Launch vehicle
Unknown
Launch site
Plesetsk Missile And Space Complex (PKMTR)
Object type
Payload
Rocket body
Debris
Shape & HBR
Unknown shape, 0.1 m
Radar Cross Section
Small (<0.1 m²)

Expand to show TLE details & history
Last TLE update: 2 months ago

TLE from 2 months ago
0 METEOR 2-17 DEB
1 38281U 88005AJ  25258.37536812  .00003516  00000-0  22057-2 0  9993
2 38281  82.5296 127.2407 0014459 308.4485  51.5388 14.04204882552942
Epoch: 2025-09-15T09:00Z
TLE epoch observation values (Epoch: 2025-09-15T09:00:31.805Z)
Latitude
-0.00002°
Longitude
-2.47275°
Altitude
875.681 km
Speed
7.418 km/s
True Right ascension
08h 28m 57s
True Declination
0° 00' 00"
Sunlit
Object was in daylight at epoch
Visualization orbit readout
Latitude
Unknown
Longitude
Unknown
Altitude
Unknown
Speed
Unknown
Apparent Right ascension
Unknown
Apparent Declination
Unknown
Sunlit
N/A
Visualization observer readout
Local Sidereal Time
07:20:42
Azimuth
Unknown
Elevation
Unknown
Doppler factor
Unknown
Orbital elements
Apogee altitude
886.885 km
Perigee altitude
865.906 km
Semi-major axis
7,254.533 km
Eccentricity
0.00145
Inclination
82.5296°
RAAN
127.2407°
Arg. of periapsis
308.4485°
True anomaly
51.66868°
Mean anomaly
51.5388°
Eccentric anomaly
51.60373°
Mean motion
3.5126 °/min
Orbital period
102.49 mins
BSTAR
0.0022057
Loading maneuver chart data...
Computing Atmospheric mass density...
Loading historical data...
Loading historical data...
Loading historical data...
Loading historical data...
Loading historical data...
Loading historical data...
Loading historical data...

Documentation

Showing up to 5 results
|